| time (UTC) | temp F | wind direction | speed MPH | gust MPH | rain 1hr in | rain 24hr in | rain mn in | humidity % | barometer mb |
| 20260506141021 | 50 | 260 | 4.0 | 8.0 | 0.00 | 0.00 | 0.00 | 57 | 1014.5 |
| 20260506140039 | 50 | 252 | 4.0 | 8.0 | 0.00 | 0.00 | 0.00 | 60 | 1014.5 |
| 20260506135056 | 49 | 255 | 3.0 | 7.0 | 0.00 | 0.00 | 0.00 | 63 | 1014.4 |
| 20260506134031 | 48 | 261 | 3.0 | 8.0 | 0.00 | 0.00 | 0.00 | 66 | 1014.3 |
| 20260506133027 | 46 | 275 | 4.0 | 7.0 | 0.00 | 0.00 | 0.00 | 68 | 1014.3 |
| 20260506132024 | 46 | 263 | 3.0 | 7.0 | 0.00 | 0.00 | 0.00 | 72 | 1014.1 |
| 20260506131022 | 45 | 245 | 3.0 | 6.0 | 0.00 | 0.00 | 0.00 | 77 | 1014.1 |
| 20260506130017 | 44 | 276 | 1.0 | 4.0 | 0.00 | 0.00 | 0.00 | 81 | 1014.0 |
| 20260506125034 | 41 | 207 | 1.0 | 2.0 | 0.00 | 0.00 | 0.00 | 85 | 1014.1 |
| 20260506124113 | 39 | 0.0 | 0.0 | 0.00 | 0.00 | 0.00 | 85 | 1013.7 | |
| 20260506123047 | 36 | 86 | 1.0 | 3.0 | 0.00 | 0.00 | 0.00 | 86 | 1013.7 |
| 20260506122046 | 33 | 79 | 1.0 | 2.0 | 0.00 | 0.00 | 0.00 | 87 | 1013.9 |
| 20260506121021 | 30 | 83 | 2.0 | 2.0 | 0.00 | 0.00 | 0.00 | 88 | 1013.9 |
| 20260506120017 | 27 | 82 | 1.0 | 3.0 | 0.00 | 0.00 | 0.00 | 86 | 1013.8 |
| 20260506115054 | 26 | 0.0 | 0.0 | 0.00 | 0.00 | 0.00 | 85 | 1013.7 | |
| 20260506114031 | 26 | 0.0 | 0.0 | 0.00 | 0.00 | 0.00 | 85 | 1013.5 | |
| 20260506113047 | 26 | 0.0 | 0.0 | 0.00 | 0.00 | 0.00 | 85 | 1013.2 | |
| 20260506112024 | 26 | 0.0 | 0.0 | 0.00 | 0.00 | 0.00 | 85 | 1012.9 | |
| 20260506111020 | 26 | 0.0 | 0.0 | 0.00 | 0.00 | 0.00 | 84 | 1012.9 | |
| 20260506110017 | 26 | 0.0 | 0.0 | 0.00 | 0.00 | 0.00 | 84 | 1012.9 | |
| 20260506105034 | 26 | 0.0 | 0.0 | 0.00 | 0.00 | 0.00 | 84 | 1013.0 | |
| 20260506104030 | 26 | 0.0 | 0.0 | 0.00 | 0.00 | 0.00 | 84 | 1012.9 | |
| 20260506103027 | 26 | 0.0 | 0.0 | 0.00 | 0.00 | 0.00 | 84 | 1012.9 | |
| 20260506102024 | 26 | 0.0 | 0.0 | 0.00 | 0.00 | 0.00 | 84 | 1013.0 | |
| 20260506101020 | 26 | 0.0 | 0.0 | 0.00 | 0.00 | 0.00 | 84 | 1012.7 | |
| 20260506100017 | 26 | 0.0 | 0.0 | 0.00 | 0.00 | 0.00 | 83 | 1012.5 | |
| 20260506095034 | 26 | 0.0 | 0.0 | 0.00 | 0.00 | 0.00 | 83 | 1012.5 | |
| 20260506094032 | 26 | 0.0 | 0.0 | 0.00 | 0.00 | 0.00 | 83 | 1012.5 | |
| 20260506093027 | 26 | 0.0 | 0.0 | 0.00 | 0.00 | 0.00 | 83 | 1012.4 | |
| 20260506092024 | 26 | 0.0 | 0.0 | 0.00 | 0.00 | 0.00 | 83 | 1012.4 | |
| 20260506091020 | 26 | 0.0 | 0.0 | 0.00 | 0.00 | 0.00 | 83 | 1012.5 | |
| 20260506090018 | 27 | 0.0 | 0.0 | 0.00 | 0.00 | 0.00 | 82 | 1012.3 | |
| 20260506085034 | 27 | 0.0 | 0.0 | 0.00 | 0.00 | 0.00 | 82 | 1012.2 | |
| 20260506084030 | 27 | 0.0 | 0.0 | 0.00 | 0.00 | 0.00 | 82 | 1012.2 | |
| 20260506083049 | 27 | 0.0 | 0.0 | 0.00 | 0.00 | 0.00 | 83 | 1012.1 | |
| 20260506082025 | 28 | 0.0 | 0.0 | 0.00 | 0.00 | 0.00 | 82 | 1012.2 | |
| 20260506081020 | 28 | 0.0 | 0.0 | 0.00 | 0.00 | 0.00 | 83 | 1012.1 | |
| 20260506073026 | 28 | 0.0 | 0.0 | 0.00 | 0.00 | 0.00 | 80 | 1011.6 | |
| 20260506072024 | 29 | 0.0 | 0.0 | 0.00 | 0.00 | 0.00 | 80 | 1011.6 | |
| 20260506071019 | 29 | 0.0 | 0.0 | 0.00 | 0.00 | 0.00 | 80 | 1011.4 | |
| 20260506062022 | 30 | 0.0 | 0.0 | 0.00 | 0.00 | 0.00 | 79 | 1011.8 | |
| 20260506061020 | 30 | 0.0 | 0.0 | 0.00 | 0.00 | 0.00 | 78 | 1011.8 | |
| 20260506051018 | 32 | 0.0 | 0.0 | 0.00 | 0.00 | 0.00 | 75 | 1011.3 | |
| 20260506045032 | 33 | 0.0 | 0.0 | 0.00 | 0.00 | 0.00 | 74 | 1011.3 | |
| 20260506044048 | 34 | 0.0 | 0.0 | 0.00 | 0.00 | 0.00 | 75 | 1011.3 | |
| 20260506043025 | 34 | 0.0 | 0.0 | 0.00 | 0.00 | 0.00 | 75 | 1011.4 | |
| 20260506042024 | 34 | 0.0 | 0.0 | 0.00 | 0.00 | 0.00 | 74 | 1011.3 | |
| 20260506041018 | 34 | 87 | 0.0 | 1.0 | 0.00 | 0.00 | 0.00 | 74 | 1011.2 |
| 20260506040035 | 34 | 79 | 1.0 | 2.0 | 0.00 | 0.00 | 0.00 | 74 | 1011.3 |
| 20260506035032 | 34 | 91 | 0.0 | 2.0 | 0.00 | 0.00 | 0.00 | 72 | 1011.1 |
| 20260506034030 | 35 | 91 | 1.0 | 1.0 | 0.00 | 0.00 | 0.00 | 72 | 1011.1 |
| 20260506033026 | 35 | 90 | 1.0 | 2.0 | 0.00 | 0.00 | 0.00 | 73 | 1011.0 |
| 20260506032022 | 36 | 88 | 1.0 | 2.0 | 0.00 | 0.00 | 0.00 | 72 | 1011.1 |
| 20260506031018 | 36 | 83 | 2.0 | 2.0 | 0.00 | 0.00 | 0.00 | 72 | 1011.0 |
| 20260506030035 | 36 | 80 | 2.0 | 2.0 | 0.00 | 0.00 | 0.00 | 71 | 1011.0 |
| 20260506025032 | 37 | 94 | 1.0 | 2.0 | 0.00 | 0.00 | 0.00 | 69 | 1010.9 |
| 20260506024028 | 38 | 86 | 2.0 | 2.0 | 0.00 | 0.00 | 0.00 | 69 | 1010.9 |
| 20260506023025 | 38 | 84 | 2.0 | 3.0 | 0.00 | 0.00 | 0.00 | 68 | 1010.6 |
| 20260506022041 | 39 | 91 | 1.0 | 2.0 | 0.00 | 0.00 | 0.00 | 65 | 1010.4 |
| 20260506021018 | 40 | 91 | 1.0 | 2.0 | 0.00 | 0.00 | 0.00 | 64 | 1010.1 |
| 20260506020035 | 41 | 82 | 1.0 | 2.0 | 0.00 | 0.00 | 0.00 | 62 | 1010.2 |
| 20260506015031 | 42 | 79 | 1.0 | 2.0 | 0.00 | 0.00 | 0.00 | 59 | 1009.8 |
| 20260506014028 | 42 | 89 | 1.0 | 1.0 | 0.00 | 0.00 | 0.00 | 58 | 1009.8 |
| 20260506013024 | 43 | 70 | 1.0 | 3.0 | 0.00 | 0.00 | 0.00 | 56 | 1009.7 |
| 20260506012021 | 45 | 86 | 0.0 | 1.0 | 0.00 | 0.00 | 0.00 | 53 | 1009.7 |
| 20260506011018 | 46 | 0.0 | 0.0 | 0.00 | 0.00 | 0.00 | 50 | 1009.6 | |
| 20260506010034 | 46 | 225 | 0.0 | 1.0 | 0.00 | 0.00 | 0.00 | 48 | 1009.6 |
| 20260506005030 | 47 | 232 | 1.0 | 2.0 | 0.00 | 0.00 | 0.00 | 47 | 1009.5 |
| 20260506004027 | 49 | 234 | 2.0 | 6.0 | 0.00 | 0.00 | 0.00 | 46 | 1009.5 |
| 20260506003042 | 50 | 236 | 2.0 | 6.0 | 0.00 | 0.00 | 0.00 | 45 | 1009.5 |
| 20260506002018 | 50 | 257 | 1.0 | 3.0 | 0.00 | 0.00 | 0.00 | 45 | 1009.4 |
| 20260506001035 | 51 | 261 | 2.0 | 6.0 | 0.00 | 0.00 | 0.00 | 44 | 1009.4 |
| 20260506000033 | 51 | 253 | 2.0 | 7.0 | 0.00 | 0.00 | 0.00 | 43 | 1009.4 |
| 20260505235028 | 52 | 258 | 2.0 | 4.0 | 0.00 | 0.00 | 0.00 | 43 | 1009.3 |
| 20260505234025 | 52 | 266 | 2.0 | 3.0 | 0.00 | 0.00 | 0.00 | 42 | 1009.3 |
| 20260505233023 | 53 | 272 | 3.0 | 10.0 | 0.00 | 0.00 | 0.00 | 41 | 1009.3 |
| 20260505222035 | 57 | 276 | 4.0 | 8.0 | 0.00 | 0.00 | 0.00 | 37 | 1009.3 |
| 20260505221052 | 58 | 259 | 6.0 | 21.0 | 0.00 | 0.00 | 0.00 | 36 | 1009.1 |
| 20260505220028 | 59 | 246 | 5.0 | 10.0 | 0.00 | 0.00 | 0.00 | 37 | 1009.3 |
| 20260505215025 | 58 | 260 | 5.0 | 11.0 | 0.00 | 0.00 | 0.00 | 38 | 1009.2 |
| 20260505214022 | 57 | 247 | 4.0 | 8.0 | 0.00 | 0.00 | 0.00 | 38 | 1009.3 |
| 20260505213018 | 57 | 253 | 4.0 | 8.0 | 0.00 | 0.00 | 0.00 | 37 | 1009.2 |
| 20260505212035 | 59 | 244 | 6.0 | 15.0 | 0.00 | 0.00 | 0.00 | 35 | 1009.2 |
| 20260505211031 | 61 | 254 | 5.0 | 15.0 | 0.00 | 0.00 | 0.00 | 35 | 1009.4 |
| 20260505210028 | 63 | 251 | 5.0 | 10.0 | 0.00 | 0.00 | 0.00 | 35 | 1009.3 |
| 20260505205025 | 64 | 235 | 6.0 | 14.0 | 0.00 | 0.00 | 0.00 | 36 | 1009.5 |
| 20260505204043 | 64 | 246 | 7.0 | 14.0 | 0.00 | 0.00 | 0.00 | 35 | 1009.5 |
| 20260505203018 | 63 | 242 | 8.0 | 18.0 | 0.00 | 0.00 | 0.00 | 36 | 1009.6 |
| 20260505202035 | 62 | 251 | 8.0 | 15.0 | 0.00 | 0.00 | 0.00 | 36 | 1009.7 |
| 20260505201033 | 58 | 253 | 8.0 | 18.0 | 0.00 | 0.00 | 0.00 | 39 | 1009.8 |
| 20260505200028 | 56 | 239 | 6.0 | 17.0 | 0.00 | 0.00 | 0.00 | 40 | 1009.8 |
| 20260505195024 | 56 | 243 | 5.0 | 14.0 | 0.00 | 0.00 | 0.00 | 39 | 1009.7 |
| 20260505194021 | 58 | 251 | 6.0 | 15.0 | 0.00 | 0.00 | 0.00 | 37 | 1009.7 |
| 20260505193018 | 58 | 274 | 5.0 | 14.0 | 0.00 | 0.00 | 0.00 | 36 | 1009.9 |
| 20260505192054 | 60 | 257 | 6.0 | 15.0 | 0.00 | 0.00 | 0.00 | 37 | 1009.9 |
| 20260505191031 | 60 | 248 | 6.0 | 14.0 | 0.00 | 0.00 | 0.00 | 39 | 1009.8 |
| 20260505190029 | 59 | 234 | 6.0 | 13.0 | 0.00 | 0.00 | 0.00 | 38 | 1010.0 |
| 20260505185044 | 60 | 265 | 7.0 | 16.0 | 0.00 | 0.00 | 0.00 | 35 | 1010.0 |
| 20260505184021 | 61 | 261 | 6.0 | 15.0 | 0.00 | 0.00 | 0.00 | 35 | 1009.9 |
| 20260505183018 | 59 | 253 | 5.0 | 13.0 | 0.00 | 0.00 | 0.00 | 37 | 1009.8 |
| 20260505182034 | 60 | 288 | 7.0 | 15.0 | 0.00 | 0.00 | 0.00 | 35 | 1009.7 |
| 20260505181031 | 60 | 247 | 5.0 | 9.0 | 0.00 | 0.00 | 0.00 | 37 | 1009.4 |
| 20260505180028 | 60 | 261 | 7.0 | 15.0 | 0.00 | 0.00 | 0.00 | 36 | 1009.4 |
| 20260505175025 | 60 | 275 | 7.0 | 14.0 | 0.00 | 0.00 | 0.00 | 36 | 1009.4 |
| 20260505174020 | 61 | 230 | 6.0 | 11.0 | 0.00 | 0.00 | 0.00 | 37 | 1009.4 |
| 20260505173017 | 62 | 228 | 8.0 | 17.0 | 0.00 | 0.00 | 0.00 | 38 | 1009.4 |
| 20260505172034 | 61 | 222 | 5.0 | 11.0 | 0.00 | 0.00 | 0.00 | 39 | 1009.4 |
| 20260505171110 | 60 | 248 | 6.0 | 14.0 | 0.00 | 0.00 | 0.00 | 39 | 1009.6 |
| 20260505170027 | 59 | 236 | 4.0 | 8.0 | 0.00 | 0.00 | 0.00 | 38 | 1009.7 |
| 20260505165044 | 59 | 227 | 6.0 | 18.0 | 0.00 | 0.00 | 0.00 | 38 | 1009.7 |
| 20260505164100 | 58 | 246 | 5.0 | 13.0 | 0.00 | 0.00 | 0.00 | 36 | 1009.7 |
| 20260505163017 | 59 | 271 | 6.0 | 15.0 | 0.00 | 0.00 | 0.00 | 36 | 1009.7 |
| 20260505162036 | 60 | 267 | 5.0 | 14.0 | 0.00 | 0.00 | 0.00 | 37 | 1009.7 |
| 20260505161031 | 58 | 259 | 5.0 | 11.0 | 0.00 | 0.00 | 0.00 | 37 | 1009.6 |
| 20260505153019 | 57 | 247 | 4.0 | 10.0 | 0.00 | 0.00 | 0.00 | 41 | 1009.2 |
| 20260505152114 | 56 | 270 | 6.0 | 13.0 | 0.00 | 0.00 | 0.00 | 41 | 1009.3 |
| 20260505151032 | 56 | 261 | 5.0 | 11.0 | 0.00 | 0.00 | 0.00 | 42 | 1009.3 |